Wind_Speed
29 29 29 28 27 26 24 23 22 21 20 18 17 16 15 14 12 11 10 9 8 7 6 6 7 7 8 8 9 9 10 10 10 10 11 11 12 14 15 16 16 17 18
32 31 30 29 28 28 26 25 24 23 21 20 19 18 16 15 14 13 11 10 9 8 8 7 8 8 9 9 9 10 10 10 10 10 11 12 13 15 16 16 17 18 19
33 32 31 31 30 29 28 27 26 24 23 22 20 19 18 17 15 14 13 12 11 10 9 9 9 9 9 10 10 10 10 10 10 11 12 13 14 15 16 17 18 19 20
34 34 33 32 31 31 30 29 27 26 24 23 22 20 19 18 17 16 14 13 12 11 10 10 10 10 11 11 11 11 11 10 11 11 12 13 14 16 17 18 19 20 21
35 35 35 34 33 32 31 30 29 27 26 24 23 22 21 20 18 17 16 14 13 12 12 11 11 11 11 11 11 11 11 11 12 12 13 14 16 17 18 19 20 21 22
36 36 36 35 34 33 32 31 30 29 27 26 25 23 22 21 20 18 17 16 15 14 13 12 12 12 12 12 12 12 12 12 12 13 14 15 17 18 18 19 20 21 23
37 36 37 36 35 35 33 32 31 30 29 28 26 25 24 22 21 20 19 18 16 15 14 13 13 13 13 13 12 12 12 12 13 13 15 16 17 18 19 20 21 22 24
38 37 38 38 37 36 35 33 32 31 30 29 28 26 25 24 23 21 20 19 18 16 15 15 14 14 14 14 13 13 13 13 14 14 16 17 18 19 20 21 22 23 25
40 39 39 39 38 37 36 34 33 33 31 30 29 27 26 25 24 23 21 20 19 18 17 16 15 15 15 15 14 14 14 14 15 16 17 18 19 20 21 22 23 24 26
42 41 40 39 38 38 37 36 34 33 32 31 30 28 28 27 26 24 23 21 20 19 18 17 17 16 16 15 15 15 15 15 16 17 17 18 20 21 22 23 24 25 27
43 42 41 40 39 39 38 37 36 35 34 32 31 30 29 28 27 26 24 23 22 20 19 18 18 17 17 16 16 16 15 16 17 18 18 19 21 22 23 24 25 27 28
44 43 42 41 41 40 39 38 37 36 35 34 33 31 30 29 28 27 26 24 23 22 20 19 19 18 18 18 18 17 16 17 18 19 20 21 22 23 24 25 26 28 29
46 45 44 43 42 41 40 39 38 37 36 35 34 33 32 30 29 28 27 26 24 23 22 21 20 19 19 19 18 18 18 18 19 19 21 22 23 24 25 26 28 29 30
48 46 45 45 43 42 41 40 39 39 38 37 35 34 33 32 31 30 28 27 26 24 23 22 21 21 20 20 19 19 19 19 19 20 22 23 24 25 26 27 29 30 32
49 47 46 45 44 43 42 41 40 39 39 38 37 36 35 34 33 32 30 29 27 26 24 23 23 22 21 21 20 20 20 20 20 22 23 24 25 26 27 29 30 31 33
51 49 48 46 45 43 42 41 41 40 39 39 38 37 36 35 34 33 31 29 28 27 26 25 24 22 22 22 21 21 21 21 22 23 24 25 26 28 28 29 31 32 34
52 51 49 47 45 44 43 42 41 40 40 39 38 37 36 35 34 33 32 30 29 28 27 26 25 24 23 23 22 22 22 22 23 24 25 26 28 29 29 30 32 33 34
54 52 51 49 47 46 44 43 42 40 40 39 38 38 37 36 35 34 33 31 30 29 28 27 26 25 24 23 23 23 23 24 25 25 26 27 28 29 30 31 33 34 35
55 54 53 51 49 47 45 44 43 41 40 40 39 38 37 36 35 35 33 32 31 30 29 27 27 26 25 25 24 24 25 25 26 26 27 28 29 30 31 33 34 35 36
57 56 54 52 50 48 47 45 44 42 40 40 39 38 38 37 35 35 34 32 31 30 29 28 28 27 26 26 25 26 26 27 27 28 29 30 31 32 33 34 35 36 37
58 57 55 54 51 49 48 46 44 42 40 39 39 39 38 37 35 35 34 33 32 31 30 29 28 28 27 27 27 27 28 28 28 29 30 31 32 33 34 35 36 37 38
59 58 56 55 53 50 48 46 44 43 41 40 39 39 38 37 36 35 34 33 32 31 30 30 29 28 28 28 28 28 29 29 30 30 31 32 33 34 35 36 37 38 39
60 59 57 55 54 52 49 48 47 45 43 41 39 38 37 36 36 35 34 33 32 31 30 29 29 29 28 28 29 29 29 30 31 31 32 33 34 35 36 37 38 39 40
60 59 57 56 54 53 51 50 48 45 42 40 38 38 38 37 37 36 35 34 33 32 31 30 30 29 29 29 29 29 30 31 31 32 33 34 35 36 37 38 39 40 40
61 59 58 57 55 54 52 50 49 46 43 42 41 40 39 38 37 36 36 35 34 33 32 31 30 30 30 30 30 30 31 32 32 32 33 34 36 37 38 39 40 40 41
62 61 59 58 56 54 53 51 49 47 45 43 42 41 39 39 37 36 36 35 34 33 33 32 31 31 31 31 31 32 33 33 33 33 34 35 36 38 39 40 41 41 42
Wind_Direction
239 237 235 234 232 231 229 226 224 224 224 225 225 225 225 226 228 231 235 241 251 263 278 292 302 306 305 306 309 313 316 316 319 322 325 328 329 329 330 330 330 330 330
240 238 236 234 233 232 230 228 226 225 225 226 225 226 226 227 229 233 237 242 249 259 272 286 295 298 298 299 301 306 310 312 315 319 322 325 327 328 329 330 329 329 329
239 238 236 235 233 232 231 229 228 226 226 226 225 226 228 229 230 233 236 241 248 256 268 280 288 290 290 293 297 301 307 309 312 315 318 322 325 327 327 328 327 327 327
238 236 235 234 233 231 230 229 228 226 226 227 227 227 228 230 232 233 236 241 247 254 264 272 279 283 286 289 292 297 303 306 308 311 316 320 322 324 326 327 327 327 327
236 235 234 233 232 231 229 228 227 227 227 228 228 229 229 230 232 234 236 241 245 252 259 266 272 278 282 285 288 292 298 302 305 309 314 318 321 324 325 326 327 327 328
236 234 233 232 231 229 228 227 227 227 228 228 229 229 229 230 232 234 237 240 244 249 256 261 267 275 280 284 285 288 294 300 303 308 313 317 320 323 324 325 327 327 328
235 234 232 231 229 228 227 226 226 227 228 229 229 229 230 230 232 234 236 239 243 248 253 259 263 272 278 281 281 285 292 299 301 307 312 316 319 322 323 325 326 326 327
233 232 231 229 228 226 226 226 226 227 227 228 229 229 230 230 232 234 236 238 241 246 252 256 260 268 275 276 278 283 291 296 299 305 311 314 318 321 322 323 324 325 326
232 231 230 228 227 225 225 226 227 228 228 228 228 229 230 230 231 233 235 238 241 246 250 254 259 266 271 272 276 282 288 294 298 304 309 313 316 319 320 321 323 325 326
231 230 229 228 226 225 225 226 227 228 228 228 228 228 229 230 231 233 235 238 241 245 249 253 258 264 267 270 275 280 285 292 297 302 306 311 315 317 319 320 322 324 325
230 229 228 227 226 225 225 225 226 227 227 227 228 229 230 230 232 234 235 237 241 244 248 252 256 261 265 270 273 278 283 289 296 300 305 309 313 316 317 319 321 323 324
229 228 226 226 226 225 225 225 225 226 227 227 228 230 230 231 232 234 235 237 241 243 247 251 255 259 264 268 272 277 281 288 294 299 304 308 312 314 316 318 319 321 323
227 225 225 224 225 225 225 225 225 225 226 227 229 230 231 231 232 234 235 237 241 243 247 250 253 258 263 267 271 275 280 287 293 299 303 307 311 314 315 317 318 320 321
225 224 223 223 224 225 225 225 225 225 226 227 228 230 230 231 232 234 235 237 241 243 247 249 253 257 262 265 270 274 280 286 292 298 302 306 310 313 315 316 317 318 320
223 222 222 222 223 224 224 224 225 225 226 226 227 229 230 230 232 233 235 237 240 243 247 249 252 256 260 264 269 274 280 285 291 297 301 305 308 311 313 315 316 318 319
222 221 221 221 222 223 224 224 225 225 225 226 227 229 229 231 231 233 235 237 239 242 246 248 251 254 259 265 269 275 280 284 290 295 300 303 307 310 312 314 316 317 318
220 220 220 221 222 222 223 223 224 224 225 226 227 228 228 230 231 233 235 237 239 242 245 248 250 254 259 264 269 275 280 285 289 293 298 303 306 309 311 313 315 316 317
219 218 219 220 221 221 222 223 223 223 224 225 227 227 228 229 231 233 234 237 239 242 245 247 250 254 259 264 269 275 280 285 288 293 297 301 304 307 310 312 314 315 315
218 217 217 218 220 220 221 222 222 222 223 224 226 226 228 229 231 232 233 236 238 241 244 247 250 254 258 264 269 274 280 284 288 292 296 299 303 306 308 311 312 313 314
217 217 216 216 218 219 220 220 221 222 223 224 224 225 227 229 230 232 233 236 238 241 244 247 250 254 258 264 269 274 280 284 287 291 295 298 301 305 307 309 311 312 313
216 216 216 216 216 218 219 220 220 221 223 223 224 225 227 229 230 232 233 235 238 241 244 247 251 255 258 264 269 275 279 283 287 290 293 297 300 304 307 308 310 311 312
214 215 216 216 217 218 219 219 219 220 221 222 223 225 227 228 230 231 232 235 238 242 245 248 252 255 259 264 269 275 279 283 286 289 292 296 299 303 306 307 309 310 311
214 215 215 216 217 218 218 219 219 220 221 222 223 225 226 228 230 231 232 235 239 242 246 249 252 256 260 265 270 275 279 283 286 289 292 295 299 302 305 306 308 309 310
213 215 215 216 217 217 218 219 220 221 222 223 224 225 226 228 230 231 233 236 239 242 246 250 253 258 262 266 271 275 279 282 285 288 292 295 298 302 304 305 306 308 309
213 214 215 214 216 217 217 218 220 220 221 222 223 224 226 228 230 232 234 237 240 243 247 251 254 259 263 267 271 275 279 282 285 287 291 294 298 301 303 304 305 307 308
214 214 213 213 214 217 217 218 219 220 221 222 224 225 227 228 230 232 234 237 240 244 247 251 255 259 263 267 271 275 279 282 284 287 290 293 297 300 302 303 304 306 308
Height
5839 5842 5844 5847 5849 5852 5854 5856 5858 5860 5862 5864 5865 5867 5868 5869 5871 5872 5873 5874 5875 5876 5876 5877 5877 5877 5877 5877 5877 5877 5876 5876 5875 5875 5874 5873 5873 5872 5870 5869 5868 5866 5865
5835 5838 5840 5842 5845 5847 5850 5852 5855 5857 5859 5861 5862 5864 5866 5867 5868 5870 5871 5872 5873 5874 5875 5875 5876 5876 5875 5875 5876 5875 5875 5875 5874 5873 5873 5872 5871 5870 5869 5867 5866 5864 5863
5830 5833 5835 5838 5840 5843 5846 5848 5851 5853 5855 5857 5859 5861 5863 5864 5866 5867 5869 5870 5871 5872 5873 5874 5874 5874 5874 5874 5874 5874 5873 5873 5872 5872 5871 5870 5869 5868 5867 5865 5864 5862 5860
5824 5827 5830 5833 5835 5838 5841 5844 5846 5849 5851 5853 5856 5858 5860 5862 5863 5865 5866 5868 5869 5870 5871 5872 5872 5872 5872 5872 5872 5872 5872 5871 5871 5870 5869 5869 5867 5866 5865 5863 5861 5860 5858
5818 5821 5824 5827 5830 5833 5836 5839 5842 5845 5847 5849 5852 5854 5856 5858 5860 5862 5863 5865 5867 5868 5869 5869 5870 5870 5870 5870 5870 5870 5870 5869 5869 5868 5868 5866 5865 5864 5862 5861 5859 5857 5855
5811 5815 5818 5821 5824 5827 5831 5834 5837 5840 5843 5845 5848 5850 5853 5855 5857 5859 5860 5862 5864 5865 5866 5867 5867 5868 5868 5868 5868 5868 5868 5867 5867 5866 5865 5864 5863 5861 5860 5858 5856 5854 5852
5805 5808 5812 5815 5819 5822 5825 5829 5832 5835 5838 5841 5843 5846 5849 5851 5853 5855 5857 5859 5860 5862 5863 5864 5865 5865 5865 5865 5865 5865 5865 5865 5864 5864 5863 5862 5860 5859 5857 5855 5853 5851 5849
5797 5801 5805 5808 5812 5816 5820 5823 5827 5830 5833 5836 5839 5842 5844 5847 5849 5851 5853 5855 5857 5859 5860 5861 5862 5862 5863 5863 5863 5863 5863 5862 5862 5861 5860 5859 5857 5856 5854 5852 5850 5848 5845
5789 5794 5798 5802 5806 5810 5814 5817 5821 5825 5828 5831 5834 5837 5840 5843 5845 5847 5850 5852 5854 5855 5857 5858 5859 5859 5860 5860 5860 5860 5860 5860 5859 5858 5857 5856 5854 5853 5851 5849 5847 5844 5842
5781 5786 5791 5795 5799 5803 5808 5812 5816 5819 5823 5826 5829 5832 5836 5838 5841 5843 5846 5848 5850 5852 5853 5854 5855 5856 5856 5857 5857 5857 5857 5857 5856 5855 5854 5853 5851 5849 5847 5845 5843 5840 5838
5773 5778 5783 5788 5792 5797 5801 5805 5809 5813 5817 5821 5824 5827 5831 5834 5836 5839 5841 5844 5846 5848 5849 5851 5852 5852 5853 5853 5854 5854 5854 5853 5853 5852 5851 5849 5848 5846 5844 5841 5839 5836 5833
5766 5771 5776 5781 5785 5790 5794 5799 5803 5807 5811 5815 5819 5822 5826 5829 5831 5834 5837 5839 5842 5844 5845 5847 5848 5849 5849 5850 5850 5850 5850 5850 5849 5848 5847 5846 5844 5842 5840 5837 5835 5832 5829
5756 5761 5767 5772 5777 5782 5787 5792 5796 5801 5805 5809 5813 5817 5820 5823 5826 5830 5832 5835 5837 5839 5841 5843 5844 5845 5845 5846 5846 5847 5847 5846 5846 5845 5843 5842 5840 5838 5835 5833 5830 5828 5824
5746 5753 5758 5764 5770 5775 5780 5785 5790 5794 5799 5803 5807 5811 5814 5818 5821 5824 5827 5830 5833 5835 5837 5838 5840 5841 5841 5842 5842 5843 5843 5842 5842 5841 5839 5838 5836 5833 5831 5828 5826 5823 5819
5736 5743 5750 5756 5762 5767 5772 5777 5782 5787 5792 5796 5800 5804 5808 5812 5816 5819 5822 5825 5828 5830 5832 5834 5835 5836 5837 5838 5838 5838 5838 5838 5837 5836 5835 5833 5831 5829 5826 5824 5821 5818 5814
5727 5734 5741 5747 5753 5759 5764 5770 5775 5780 5785 5789 5794 5798 5802 5806 5810 5813 5817 5820 5822 5825 5827 5829 5831 5832 5833 5833 5834 5834 5834 5833 5833 5832 5830 5828 5826 5824 5821 5819 5816 5812 5809
5717 5724 5731 5738 5744 5751 5756 5762 5767 5772 5778 5783 5787 5791 5796 5800 5804 5807 5811 5814 5817 5819 5822 5824 5825 5827 5828 5829 5829 5829 5829 5828 5828 5827 5825 5823 5821 5819 5816 5813 5810 5807 5803
5706 5714 5721 5728 5736 5742 5748 5754 5760 5765 5770 5776 5780 5785 5789 5793 5797 5801 5805 5808 5811 5814 5816 5819 5820 5822 5823 5824 5824 5824 5824 5823 5823 5821 5820 5818 5816 5814 5811 5808 5805 5801 5798
5696 5704 5712 5719 5727 5734 5740 5746 5752 5758 5763 5768 5774 5778 5783 5787 5791 5795 5799 5802 5805 5808 5811 5813 5815 5816 5818 5818 5819 5819 5819 5818 5817 5816 5814 5813 5811 5808 5805 5802 5799 5795 5792
5685 5694 5702 5710 5718 5725 5731 5738 5744 5750 5756 5761 5767 5772 5776 5780 5785 5789 5793 5796 5799 5802 5805 5807 5809 5811 5812 5813 5813 5813 5813 5812 5811 5810 5809 5807 5805 5802 5799 5796 5793 5789 5785
5675 5684 5693 5701 5709 5716 5723 5731 5737 5743 5749 5755 5760 5765 5770 5774 5778 5782 5787 5790 5793 5796 5799 5801 5803 5805 5806 5807 5808 5807 5807 5806 5805 5804 5803 5801 5799 5796 5793 5790 5786 5783 5778
5665 5674 5684 5692 5701 5708 5716 5723 5730 5736 5742 5747 5752 5758 5763 5767 5772 5776 5780 5784 5787 5790 5793 5795 5797 5799 5800 5801 5802 5801 5801 5801 5799 5798 5796 5795 5792 5790 5787 5783 5780 5776 5772
5655 5665 5674 5684 5692 5700 5708 5715 5721 5727 5733 5739 5746 5751 5756 5761 5765 5769 5774 5777 5781 5784 5786 5789 5791 5792 5794 5795 5795 5796 5795 5794 5793 5792 5790 5788 5786 5783 5780 5776 5773 5769 5765
5646 5655 5665 5674 5683 5691 5699 5706 5714 5721 5728 5734 5740 5744 5749 5753 5758 5763 5767 5771 5774 5777 5780 5782 5784 5786 5787 5788 5788 5788 5788 5788 5787 5785 5783 5781 5779 5776 5773 5769 5765 5761 5757
5635 5645 5655 5664 5673 5682 5690 5698 5706 5713 5720 5726 5731 5736 5741 5746 5751 5755 5760 5764 5768 5771 5773 5775 5778 5779 5781 5781 5782 5781 5781 5780 5779 5778 5777 5774 5772 5769 5766 5762 5758 5754 5750
5623 5634 5644 5654 5664 5673 5681 5689 5697 5705 5712 5718 5724 5729 5734 5739 5744 5749 5753 5757 5761 5764 5766 5769 5770 5772 5773 5774 5775 5774 5774 5773 5772 5771 5770 5767 5765 5762 5758 5754 5750 5746 5741